Nicolás Vega

Olheiro - Chaco For Ever
20 Fev 2028
Domingo
Processo

Personalidade

Adaptabilidade (18) Ambição (1) Controvérsia (9) Lealdade (10) Pressão (7) Profissionalismo (15) Espírito Esportivo (13) Temperamento (16)

Perfil

Estilo de Treinamento Democrático
Licença Continental B
Determinação 7
Gestão de Pessoas 3
Motivação 6
Disciplina 5
Satisfação no Trabalho
100%
Fadiga
0%
Função Olheiro
Salário 25.3K p/s
Contrato 14.03.2029

Desempenho

Comportamento Bom
Eficácia do Treinamento
21%
Desenvolvimento do Jogador
5%
Prevenção de Lesões
25%
Implementação Tática
20%

Eventos Recentes

Participou de uma reunião de recrutamento 14d atrás
Participou de uma reunião de recrutamento 21d atrás
Participando de desenvolvimento profissional 28d atrás
Participou de uma reunião de recrutamento 28d atrás
Participando de desenvolvimento profissional 28d atrás
Participando de desenvolvimento profissional 28d atrás
Participando de desenvolvimento profissional 28d atrás
Participando de desenvolvimento profissional 35d atrás

Monitorando agora

125
Jogador Clube Status Habilidade Confiança Observado Última observação Último voto
Álvaro Veliez San Martín Ativo 95 / 120 40% 1 04.01.2028 -
Ramiro Balbuena Nueva Chicago Ativo 117 / 111 40% 1 04.01.2028 -
Matías Tagliamonte Racing Club Ativo 121 / 110 40% 2 29.11.2026 -
Juan Luis Alfaro Banfield Ativo 128 / 108 40% 2 29.11.2026 -
Matías Montero Madryn Ativo 86 / 116 40% 1 29.11.2026 -
Massimo Sandi Sport Huancayo Ativo 87 / 89 40% 2 27.11.2026 -
Matías Kabalín Ferro Carril Oeste Ativo 106 / 93 40% 1 27.11.2026 -
Tobías Leiva Estudiantes Ativo 108 / 127 40% 1 27.11.2026 -
Lorenzo Monti Temperley Ativo 94 / 106 40% 1 24.11.2026 -
Lucas Ruiz Ferro Carril Oeste Ativo 98 / 114 40% 1 23.11.2026 -
Juan Mendoza Güemes Ativo 97 / 95 40% 1 22.11.2026 -
Martín García Atlanta Ativo 115 / 101 40% 1 22.11.2026 -
Mauro Casoli Talleres Ativo 102 / 109 40% 1 20.11.2026 -
José Rivas Gamboa Trujillanos Ativo 93 / 97 40% 2 17.11.2026 -
Mauricio Márquez Caracas Ativo 103 / 115 40% 3 16.11.2026 -
Agustín Gallo Tristán Suárez Rejeitado 105 / 96 40% 3 16.11.2026 Rejeitar
Matías Bazzi Talleres Ativo 87 / 119 40% 1 15.11.2026 -
Damián Adín San Miguel Ativo 102 / 124 40% 1 15.11.2026 -
Elías Ayala Madryn Ativo 119 / 96 40% 1 15.11.2026 -
Germán Cervera Alvarado Ativo 90 / 118 40% 1 15.11.2026 -
Cristian Núñez Huracán Ativo 128 / 130 40% 1 12.11.2026 -
Jero Minnesota United FC Ativo 91 / 123 40% 1 12.11.2026 -
Juan Esteban Franco Portland Timbers Ativo 94 / 111 40% 1 12.11.2026 -
Joao Moris Palestino Ativo 70 / 71 40% 1 11.11.2026 -
Juan Manuel Jorge Defensor Sporting Ativo 92 / 96 40% 2 10.11.2026 -
Luis Corredor Estudiantes de Caracas Ativo 81 / 92 40% 1 07.11.2026 -
Agustín Benítez Defensores Ativo 119 / 129 40% 1 07.11.2026 -
Fernando Miranda Colegiales Ativo 95 / 121 40% 1 04.11.2026 -
Novak Mićović LA Galaxy Ativo 109 / 116 40% 1 04.11.2026 -
Diego Capdevila Cerro Ativo 100 / 75 40% 1 02.11.2026 -
Ezequiel Almirón Estudiantes Ativo 98 / 119 40% 2 01.11.2026 -
Kevin O'Toole New York City Ativo 121 / 106 40% 1 31.10.2026 -
Joaquín Enrico San Telmo Ativo 91 / 110 40% 1 31.10.2026 -
Denilson Ojeda Carabobo Ativo 83 / 74 40% 2 29.10.2026 -
Yoimer Pacheco Union Magdalena Ativo 87 / 79 40% 1 29.10.2026 -
Emmanuel Sabbi Vancouver Whitecaps Ativo 126 / 124 40% 1 29.10.2026 -
Tomás Rojas Atlanta Ativo 122 / 131 40% 1 28.10.2026 -
Diego Valencia Universidad Catolica Ativo 102 / 113 40% 4 23.10.2026 -
Jeremy Ebobisse Los Angeles Football Club Ativo 112 / 124 40% 1 23.10.2026 -
Nahuel Pezzini Arsenal Ativo 101 / 126 40% 3 22.10.2026 -
David Agudelo Depor Ativo 110 / 108 40% 1 22.10.2026 -
José Febres Trujillanos Ativo 91 / 87 40% 1 19.10.2026 -
Richard Torales Guarani Ativo 112 / 112 40% 1 18.10.2026 -
Julián Cosi Madryn Ativo 108 / 104 40% 1 18.10.2026 -
Justin Haak LA Galaxy Ativo 123 / 89 40% 1 18.10.2026 -
Fabricio Hass Central Norte Ativo 121 / 118 40% 1 17.10.2026 -
Iván Tapia Barracas Central Ativo 113 / 112 40% 1 16.10.2026 -
Leonard Costa Independiente Rivadavia Ativo 128 / 122 40% 1 11.10.2026 -
Juan José Cardozo Argentinos Juniors Ativo 125 / 128 40% 1 10.10.2026 -
Gonzalo Mottes Chacarita Juniors Ativo 111 / 117 40% 1 08.10.2026 -
Emeka Eneli Real Salt Lake Ativo 126 / 91 40% 1 08.10.2026 -
Francisco Castillo Llaneros Ativo 91 / 116 40% 1 07.10.2026 -
Piero Magallanes Sport Huancayo Ativo 81 / 89 40% 2 04.10.2026 -
Marco Miori Alvarado Ativo 95 / 94 40% 1 04.10.2026 -
Facundo Vila Estudiantes Ativo 83 / 109 40% 1 04.10.2026 -
Fernando Hernández St. Louis CITY SC Ativo 82 / 86 40% 1 02.10.2026 -
Jorge Graterol Deportivo Lara Ativo 95 / 101 40% 1 02.10.2026 -
Juan Ignacio Méndez Instituto Ativo 109 / 135 40% 1 02.10.2026 -
Luis Gonzalez Atletico Venezuela Ativo 98 / 125 40% 1 02.10.2026 -
Santiago Apa All Boys Ativo 118 / 117 40% 1 01.10.2026 -
Elías Villar Nacional Ativo 84 / 78 40% 1 29.09.2026 -
Matías Giménez Rojas Argentinos Juniors Ativo 108 / 136 40% 2 28.09.2026 -
Mathías de Ritis San Lorenzo Ativo 102 / 113 40% 1 24.09.2026 -
Pablo Fernández Sol de America Ativo 96 / 112 40% 2 23.09.2026 -
Cristian Carbajal Alianza Lima Ativo 126 / 100 40% 1 23.09.2026 -
Matías Samaniego Talleres Ativo 117 / 110 40% 1 22.09.2026 -
José Hernández Queretaro Ativo 136 / 127 40% 1 20.09.2026 -
Gastón Verón Argentinos Juniors Ativo 136 / 136 40% 1 19.09.2026 -
Agustín Módica Gimnasia y Esgrima Ativo 105 / 103 40% 1 19.09.2026 -
Agustín Rodríguez Colon Ativo 102 / 96 40% 1 17.09.2026 -
Santiago Guzmán Wanderers Ativo 85 / 102 40% 1 17.09.2026 -
Agustín Pérez Deportivo Tachira Ativo 99 / 96 40% 1 16.09.2026 -
Johan Madrid Sporting Cristal Ativo 99 / 105 40% 1 16.09.2026 -
Renzo Reynaga Patronato Ativo 117 / 100 40% 1 16.09.2026 -
Diego Barbosa Toluca Ativo 137 / 144 40% 1 14.09.2026 -
Brian Calderara Chacarita Juniors Ativo 123 / 110 40% 1 14.09.2026 -
Owen Falconis Cerrito Ativo 113 / 103 40% 1 13.09.2026 -
Vitinho River Plate Ativo 87 / 77 40% 1 13.09.2026 -
Juan Camilo Loaiza Llaneros Ativo 85 / 108 40% 1 12.09.2026 -
Andrés Samurio Tacuarembo Ativo 99 / 92 40% 1 12.09.2026 -
David Salazar Santiago Wanderers Ativo 75 / 81 40% 1 11.09.2026 -
Randall Rodríguez River Plate Ativo 117 / 119 40% 1 09.09.2026 -
Duvan Medina Cortulua Ativo 91 / 107 40% 1 09.09.2026 -
Daniel Rivera Junior Ativo 111 / 105 40% 1 06.09.2026 -
Alexis Gutiérrez Club America Ativo 146 / 149 40% 1 06.09.2026 -
Gustavo Rodriguez Valledupar Ativo 99 / 92 40% 1 05.09.2026 -
Manuel Tasso New York City Ativo 116 / 77 40% 1 05.09.2026 -
Gonzalo Siri Argentinos Juniors Ativo 116 / 91 40% 1 04.09.2026 -
Ricardo Bettocchi UTC Ativo 79 / 93 40% 1 04.09.2026 -
Franco Pérez Boston River Ativo 91 / 113 40% 1 04.09.2026 -
Nahuel Sena Cerro Ativo 112 / 101 40% 2 03.09.2026 -
Luciano Peraggini Maipú Ativo 89 / 118 40% 1 02.09.2026 -
Emiliano Bermúdez Oriental Ativo 79 / 98 40% 2 01.09.2026 -
Augusto Berrondo Tristán Suárez Ativo 97 / 122 40% 1 01.09.2026 -
Luciano Arriagada Huachipato Ativo 109 / 118 40% 1 01.09.2026 -
Bruno Hernández Cerro Largo Ativo 105 / 113 40% 1 31.08.2026 -
Maurice Malone Minnesota United FC Ativo 143 / 99 40% 1 31.08.2026 -
Bianneider Tamayo Universidad de Chile Ativo 114 / 98 40% 1 29.08.2026 -
Efraín Navarro Once Caldas Ativo 104 / 103 40% 1 28.08.2026 -
Manuel Núñez Tacuarembo Ativo 71 / 80 40% 1 28.08.2026 -
Aldo Pérez Guarani Ativo 115 / 123 40% 1 27.08.2026 -
Amaury García Cruz Azul Ativo 75 / 72 40% 1 23.08.2026 -
Marber Suárez Zulia Ativo 96 / 91 40% 1 23.08.2026 -
Nicolás Leites Artigas Ativo 75 / 92 40% 1 22.08.2026 -
Leonardo Gómez Valledupar Ativo 105 / 91 40% 1 21.08.2026 -
Ezequiel Busquets Montevideo City Torque Ativo 94 / 112 40% 2 19.08.2026 -
Martín Ginzo Deportivo Maldonado Ativo 100 / 107 40% 1 19.08.2026 -
Nahuel Gómez Oriental Ativo 92 / 80 40% 1 18.08.2026 -
Facundo Borges Central Espanol Ativo 101 / 81 40% 1 18.08.2026 -
Santiago Aguilar Deportivo Pereira Ativo 94 / 110 40% 1 18.08.2026 -
Marcus Vinicius Deportivo Pereira Ativo 103 / 124 40% 1 16.08.2026 -
Nahuel Suárez La Luz Ativo 89 / 116 40% 1 15.08.2026 -
Emiliano Mozzone Deportivo Maldonado Ativo 100 / 117 40% 1 13.08.2026 -
Brian González Atenas Ativo 99 / 85 40% 1 13.08.2026 -
Andrés Micolta Pachuca Ativo 110 / 127 40% 1 10.08.2026 -
Didier Palacios Envigado Ativo 99 / 120 40% 1 10.08.2026 -
Guillermo Larios Alianza Atletico Ativo 95 / 81 40% 1 10.08.2026 -
Juan González River Plate Ativo 89 / 87 40% 1 09.08.2026 -
Bruno Antúnez Boston River Ativo 112 / 108 40% 1 07.08.2026 -
Cristián Mosquera Bogota Ativo 114 / 100 40% 1 04.08.2026 -
Francisco Sagardia Rampla Juniors Ativo 90 / 106 40% 1 03.08.2026 -
Jimmy Evans Universidad Catolica Ativo 96 / 117 40% 1 03.08.2026 -
Jesús Rivas Pumas UNAM Ativo 134 / 85 40% 1 03.08.2026 -
Guillermo Gandolfo Central Espanol Ativo 113 / 87 40% 1 03.08.2026 -
Nicolás Forastiero Deportivo Maldonado Ativo 88 / 105 40% 1 01.08.2026 -